Weather History for New Bern, NC

Change the Weather History Date:

Sunday, December 9, 2012

  Actual Average Record
Temperature  
Mean Temperature 61 °F 48 °F  
Max Temperature 76 °F 59 °F 80 °F (1951)
Min Temperature 46 °F 37 °F 17 °F (2006)
Degree Days  
Heating Degree Days 4 17  
Month to date heating degree days 67 142  
Since 1 July heating degree days 616 569  
Cooling Degree Days 0 0  
Month to date cooling degree days 0 0  
Year to date cooling degree days 2025 1900  
Growing Degree Days 10 (Base 50)    
Moisture  
Dew Point 53 °F    
Average Humidity 75    
Maximum Humidity 100    
Minimum Humidity 50    
Precipitation  
Precipitation 0.00 in 0.11 in 1.67 in (1989)
Month to date precipitation 0.30 1.00  
Year to date precipitation 47.97 50.35  
Snow  
Snow 0.00 in - - ()
Month to date snowfall 0.0  
Since 1 July snowfall 0.0  
Snow Depth 0.00 in    
Sea Level Pressure  
Sea Level Pressure 30.12 in    
Wind  
Wind Speed 3 mph (SSE)    
Max Wind Speed 13 mph    
Max Gust Speed 18 mph    
Visibility 6 miles    
Events Fog    
T = Trace of Precipitation, MM = Missing Value Source: NWS Daily Summary

Daily Weather History Graph

Daily Weather History Graph

Search for Another Location

Airport:

Trip Planner

Search our weather history database for the weather conditions in past years. The results will help you decide how hot, cold, wet, or windy it might be!

Date:

Astronomy

Dec. 09, 2012 Rise Set
Actual Time 7:05 AM EST 4:56 PM EST
Civil Twilight 6:36 AM EST 5:24 PM EST
Nautical Twilight 6:05 AM EST 5:56 PM EST
Astronomical Twilight 5:34 AM EST 6:26 PM EST
Moon 2:42 AM EST (12/9) 1:55 PM EST (12/9)
Length of Visible Light 10h 47m
Length of Day
9h 51m
Waning Crescent, 19% of the Moon is Illuminated
Dec 9
Waning Crescent
Dec 13
New
Dec 20
First Quarter
Dec 28
Full
Jan 4
Last Quarter

Hourly Weather History & Observations

Time (EST) Temp. Dew Point Humidity Pressure Visibility Wind Dir Wind Speed Gust Speed Precip Events Conditions
12:11 AM 53.6 °F 53.6 °F 100% 30.09 in 0.5 mi Calm Calm - N/A Fog Fog
12:54 AM 54.0 °F 53.1 °F 97% 30.10 in 0.5 mi Calm Calm - N/A Fog Fog
1:54 AM 54.0 °F 53.1 °F 97% 30.11 in 0.2 mi Calm Calm - N/A Fog Fog
2:54 AM 52.0 °F 51.1 °F 97% 30.11 in 0.2 mi Calm Calm - N/A Fog Fog
3:24 AM 51.8 °F 51.8 °F 100% 30.11 in 1.0 mi Calm Calm - 0.01 in   Mist
3:42 AM 51.8 °F 50.0 °F 94% 30.11 in 2.0 mi Calm Calm - 0.01 in   Overcast
3:50 AM 51.8 °F 51.8 °F 100% 30.12 in 6.0 mi Calm Calm - 0.01 in   Overcast
3:54 AM 51.1 °F 51.1 °F 100% 30.12 in 6.0 mi Calm Calm - 0.01 in   Overcast
4:54 AM 51.1 °F 50.0 °F 96% 30.12 in 7.0 mi Calm Calm - N/A   Overcast
5:01 AM 50.0 °F 50.0 °F 100% 30.12 in 1.8 mi Calm Calm - N/A   Mostly Cloudy
5:54 AM 48.9 °F 48.0 °F 97% 30.14 in 1.2 mi Calm Calm - N/A   Clear
5:59 AM 50.0 °F 48.2 °F 94% 30.14 in 4.0 mi Calm Calm - N/A   Clear
6:05 AM 48.2 °F 48.2 °F 100% 30.14 in 1.5 mi Calm Calm - N/A   Partly Cloudy
6:17 AM 48.2 °F 48.2 °F 100% 30.14 in 0.5 mi Calm Calm - N/A Fog Fog
6:25 AM 48.2 °F 46.4 °F 93% 30.14 in 0.8 mi Calm Calm - N/A   Mist
6:34 AM 48.2 °F 46.4 °F 93% 30.14 in 1.0 mi Calm Calm - N/A   Mist
6:39 AM 48.2 °F 46.4 °F 93% 30.14 in 0.5 mi Calm Calm - N/A Fog Fog
6:54 AM 46.9 °F 46.0 °F 97% 30.15 in 0.5 mi Calm Calm - N/A Fog Fog
7:32 AM 48.2 °F 48.2 °F 100% 30.16 in 0.8 mi Calm Calm - N/A   Mostly Cloudy
7:36 AM 50.0 °F 48.2 °F 94% 30.16 in 2.0 mi Calm Calm - N/A   Mostly Cloudy
7:44 AM 51.8 °F 50.0 °F 94% 30.16 in 7.0 mi Calm Calm - N/A   Mostly Cloudy
7:54 AM 52.0 °F 51.1 °F 97% 30.16 in 9.0 mi Calm Calm - N/A   Mostly Cloudy
8:54 AM 57.9 °F 57.0 °F 97% 30.18 in 8.0 mi Calm Calm - N/A   Scattered Clouds
9:54 AM 64.0 °F 57.9 °F 80% 30.19 in 10.0 mi Calm Calm - N/A   Partly Cloudy
10:54 AM 68.0 °F 57.9 °F 70% 30.18 in 10.0 mi Variable 3.5 mph - N/A   Partly Cloudy
11:54 AM 70.0 °F 59.0 °F 68% 30.15 in 10.0 mi Variable 3.5 mph - N/A   Clear
12:54 PM 73.9 °F 57.0 °F 55% 30.12 in 10.0 mi South 6.9 mph - N/A   Partly Cloudy
1:54 PM 75.0 °F 55.9 °F 51% 30.10 in 10.0 mi South 9.2 mph - N/A   Clear
2:54 PM 73.9 °F 55.9 °F 53% 30.10 in 10.0 mi SSE 10.4 mph - N/A   Clear
3:54 PM 73.0 °F 60.1 °F 64% 30.11 in 10.0 mi South 8.1 mph - N/A   Scattered Clouds
4:54 PM 70.0 °F 61.0 °F 73% 30.11 in 10.0 mi South 5.8 mph - N/A   Mostly Cloudy
5:54 PM 66.0 °F 59.0 °F 78% 30.11 in 10.0 mi SE 3.5 mph - N/A   Mostly Cloudy
6:54 PM 63.0 °F 55.9 °F 78% 30.11 in 10.0 mi Calm Calm - N/A   Clear
7:54 PM 61.0 °F 55.9 °F 83% 30.09 in 10.0 mi SE 4.6 mph - N/A   Clear
8:54 PM 61.0 °F 57.9 °F 90% 30.09 in 10.0 mi SSE 3.5 mph - N/A   Clear
9:54 PM 57.0 °F 55.0 °F 93% 30.08 in 10.0 mi SSE 3.5 mph - N/A   Clear
10:54 PM 63.0 °F 61.0 °F 93% 30.06 in 10.0 mi SSE 3.5 mph - N/A   Overcast
11:54 PM 64.9 °F 62.1 °F 90% 30.04 in 10.0 mi SSE 3.5 mph - N/A   Overcast